Newcastle, WY

2:52 AM MDT on August 29, 2016 (GMT -0600)
Mondell

Weather History for KECS - March, 2014

Change the Weather History Date:

Saturday, March 15, 2014

  Actual Average (KCUT) Record (KCUT)
Temperature  
Mean Temperature 34 °F 31 °F  
Max Temperature 41 °F 42 °F 71 °F (2015)
Min Temperature 28 °F 21 °F -17 °F (1949)
Degree Days  
Heating Degree Days 30 34  
Month to date heating degree days 529  
Since 1 July heating degree days 6364  
Cooling Degree Days 0 0  
Month to date cooling degree days 0  
Year to date cooling degree days 0  
Moisture  
Dew Point 30 °F    
Average Humidity 84    
Maximum Humidity 100    
Minimum Humidity 56    
Precipitation  
Precipitation 0.00 in 0.03 in 0.57 in (1938)
Month to date precipitation 0.37  
Year to date precipitation 1.23  
Sea Level Pressure  
Sea Level Pressure 30.06 in    
Wind  
Wind Speed 12 mph (NW)    
Max Wind Speed 26 mph    
Max Gust Speed 38 mph    
Visibility 9 miles    
Events Rain , Snow    
T = Trace of Precipitation, MM = Missing Value Source: NWS Daily Summary

Daily Weather History Graph

Daily Weather History Graph

Search for Another Location

Airport or City:

Trip Planner

Search our weather history database for the weather conditions in past years. The results will help you decide how hot, cold, wet, or windy it might be!

Date:

Astronomy

Mar. 15, 2014 Rise Set
Actual Time 7:09 AM MDT 7:03 PM MDT
Civil Twilight 6:40 AM MDT 7:32 PM MDT
Nautical Twilight 6:07 AM MDT 8:05 PM MDT
Astronomical Twilight 5:33 AM MDT 8:39 PM MDT
Moon 6:25 PM MDT (3/15) 6:23 AM MDT (3/15)
Length of Visible Light 12h 51m
Length of Day
11h 54m
Waxing Gibbous, 99% of the Moon is Illuminated
Mar 15
Waxing Gibbous
Mar 16
Full
Mar 23
Last Quarter
Mar 30
New
Apr 7
First Quarter

Hourly Weather History & Observations

Time (MDT) Temp. Windchill Dew Point Humidity Pressure Visibility Wind Dir Wind Speed Gust Speed Precip Events Conditions
12:15 AM 37.4 °F 34.9 °F 26.6 °F 65% 29.80 in 10.0 mi South 3.5 mph - N/A   Clear
12:35 AM 39.2 °F 35.9 °F 26.6 °F 61% 29.81 in 10.0 mi NNW 4.6 mph - N/A   Clear
12:55 AM 39.2 °F - 26.6 °F 61% 29.81 in 10.0 mi Calm Calm - N/A   Clear
1:15 AM 39.2 °F - 24.8 °F 56% 29.81 in 10.0 mi Calm Calm - N/A   Clear
1:35 AM 35.6 °F 32.8 °F 28.4 °F 75% 29.81 in 10.0 mi West 3.5 mph - N/A   Clear
1:55 AM 37.4 °F 32.1 °F 28.4 °F 70% 29.81 in 10.0 mi WNW 6.9 mph - N/A   Clear
2:15 AM 37.4 °F 32.1 °F 28.4 °F 70% 29.82 in 10.0 mi WNW 6.9 mph - N/A   Clear
2:35 AM 37.4 °F 31.4 °F 28.4 °F 70% 29.82 in 10.0 mi WNW 8.1 mph - N/A   Clear
2:55 AM 37.4 °F 31.4 °F 26.6 °F 65% 29.82 in 10.0 mi NW 8.1 mph - N/A   Clear
3:15 AM 37.4 °F 30.3 °F 28.4 °F 70% 29.84 in 10.0 mi NW 10.4 mph - N/A   Clear
3:35 AM 41.0 °F 32.5 °F 30.2 °F 65% 29.85 in 10.0 mi NW 17.3 mph 26.5 mph N/A   Clear
3:55 AM 37.4 °F 28.2 °F 32.0 °F 81% 29.86 in 10.0 mi NNW 16.1 mph - N/A Rain Light Rain
4:15 AM 35.6 °F 29.2 °F 32.0 °F 87% 29.84 in 10.0 mi NNE 8.1 mph - N/A   Scattered Clouds
4:35 AM 35.6 °F 30.7 °F 32.0 °F 87% 29.84 in 10.0 mi North 5.8 mph - N/A   Scattered Clouds
4:55 AM 35.6 °F 30.7 °F 32.0 °F 87% 29.85 in 10.0 mi North 5.8 mph - N/A   Clear
5:15 AM 35.6 °F 31.7 °F 32.0 °F 87% 29.86 in 10.0 mi NNW 4.6 mph - N/A   Drizzle
5:35 AM 35.6 °F 29.2 °F 32.0 °F 87% 29.86 in 10.0 mi NW 8.1 mph - N/A   Scattered Clouds
5:55 AM 35.6 °F 23.7 °F 33.8 °F 93% 29.88 in 10.0 mi NW 24.2 mph 34.5 mph N/A   Light Drizzle
6:15 AM 35.6 °F 24.2 °F 32.0 °F 87% 29.89 in 10.0 mi NNW 21.9 mph 34.5 mph N/A   Light Drizzle
6:35 AM 33.8 °F 22.5 °F 32.0 °F 93% 29.90 in 10.0 mi NNW 19.6 mph 25.3 mph N/A   Mostly Cloudy
6:55 AM 33.8 °F 22.8 °F 32.0 °F 93% 29.91 in 10.0 mi NW 18.4 mph 31.1 mph N/A   Scattered Clouds
7:15 AM 32.0 °F 19.8 °F 32.0 °F 100% 29.92 in 7.0 mi NNW 20.7 mph 26.5 mph N/A Snow Light Snow
7:35 AM 32.0 °F 21.2 °F 32.0 °F 100% 29.94 in 1.8 mi NNW 16.1 mph 21.9 mph N/A Snow Light Snow
7:55 AM 32.0 °F 22.1 °F 32.0 °F 100% 29.95 in 1.5 mi NW 13.8 mph - N/A Snow Light Snow
8:15 AM 32.0 °F 22.5 °F 32.0 °F 100% 29.96 in 1.5 mi NW 12.7 mph - N/A Snow Light Snow
8:35 AM 32.0 °F 19.5 °F 32.0 °F 100% 29.97 in 2.5 mi NW 21.9 mph 29.9 mph N/A Snow Light Snow
8:55 AM 32.0 °F 20.8 °F 32.0 °F 100% 29.98 in 1.5 mi NW 17.3 mph 26.5 mph N/A Snow Light Snow
9:15 AM 32.0 °F 20.5 °F 32.0 °F 100% 30.00 in 1.5 mi NW 18.4 mph 23.0 mph N/A Snow Light Snow
9:35 AM 32.0 °F 20.5 °F 32.0 °F 100% 30.00 in 2.5 mi NW 18.4 mph 32.2 mph N/A Snow Light Snow
9:55 AM 32.0 °F 20.8 °F 32.0 °F 100% 30.01 in 4.0 mi NW 17.3 mph 25.3 mph N/A Snow Light Snow
10:15 AM 33.8 °F 22.8 °F 32.0 °F 93% 30.02 in 7.0 mi NW 18.4 mph 23.0 mph N/A Snow Light Snow
10:35 AM 33.8 °F 22.5 °F 32.0 °F 93% 30.03 in 10.0 mi NW 19.6 mph 24.2 mph N/A   Overcast
10:55 AM 33.8 °F 21.9 °F 32.0 °F 93% 30.04 in 10.0 mi NW 21.9 mph 27.6 mph N/A   Overcast
11:15 AM 33.8 °F 22.5 °F 32.0 °F 93% 30.06 in 7.0 mi NW 19.6 mph 23.0 mph N/A   Mostly Cloudy
11:35 AM 33.8 °F 21.9 °F 32.0 °F 93% 30.07 in 5.0 mi NW 21.9 mph 31.1 mph N/A   Mostly Cloudy
11:55 AM 33.8 °F 22.2 °F 32.0 °F 93% 30.08 in 10.0 mi NW 20.7 mph 29.9 mph N/A   Mostly Cloudy
12:15 PM 33.8 °F 22.2 °F 32.0 °F 93% 30.08 in 10.0 mi NW 20.7 mph 24.2 mph N/A   Mostly Cloudy
12:35 PM 33.8 °F 22.8 °F 32.0 °F 93% 30.10 in 5.0 mi NW 18.4 mph 27.6 mph N/A   Mostly Cloudy
12:55 PM 33.8 °F 22.2 °F 32.0 °F 93% 30.11 in 4.0 mi NW 20.7 mph 27.6 mph N/A   Drizzle
1:15 PM 33.8 °F 22.5 °F 32.0 °F 93% 30.12 in 5.0 mi NW 19.6 mph 27.6 mph N/A Rain Light Rain
1:35 PM 33.8 °F 23.2 °F 32.0 °F 93% 30.13 in 5.0 mi NW 17.3 mph 20.7 mph N/A Snow Light Snow
1:55 PM 35.6 °F 24.2 °F 32.0 °F 87% 30.13 in 10.0 mi NW 21.9 mph 32.2 mph N/A Rain Light Rain
2:15 PM 35.6 °F 24.2 °F 33.8 °F 93% 30.14 in 10.0 mi NW 21.9 mph 33.4 mph N/A   Light Drizzle
2:35 PM 37.4 °F 25.6 °F 32.0 °F 81% 30.14 in 10.0 mi NW 26.5 mph 35.7 mph N/A   Light Drizzle
2:55 PM 37.4 °F 26.4 °F 32.0 °F 81% 30.15 in 10.0 mi NW 23.0 mph 35.7 mph N/A   Mostly Cloudy
3:15 PM 37.4 °F 25.6 °F 32.0 °F 81% 30.16 in 10.0 mi NNW 26.5 mph 38.0 mph N/A   Scattered Clouds
3:35 PM 35.6 °F 23.7 °F 32.0 °F 87% 30.17 in 10.0 mi NW 24.2 mph 35.7 mph N/A   Scattered Clouds
3:55 PM 37.4 °F 26.6 °F 32.0 °F 81% 30.18 in 10.0 mi NW 21.9 mph 32.2 mph N/A   Mostly Cloudy
4:15 PM 37.4 °F 26.4 °F 32.0 °F 81% 30.19 in 10.0 mi NNW 23.0 mph 34.5 mph N/A   Mostly Cloudy
4:35 PM 37.4 °F 26.4 °F 30.2 °F 75% 30.19 in 10.0 mi NW 23.0 mph 32.2 mph N/A   Scattered Clouds
4:55 PM 37.4 °F 25.9 °F 30.2 °F 75% 30.21 in 10.0 mi NW 25.3 mph 32.2 mph N/A   Scattered Clouds
5:15 PM 35.6 °F 23.7 °F 28.4 °F 75% 30.22 in 10.0 mi NNW 24.2 mph 32.2 mph N/A   Mostly Cloudy
5:35 PM 35.6 °F 25.2 °F 28.4 °F 75% 30.24 in 10.0 mi NNW 18.4 mph 29.9 mph N/A   Mostly Cloudy
5:55 PM 35.6 °F 25.5 °F 28.4 °F 75% 30.23 in 10.0 mi North 17.3 mph 23.0 mph N/A   Mostly Cloudy
6:15 PM 35.6 °F 24.5 °F 26.6 °F 70% 30.23 in 10.0 mi North 20.7 mph 31.1 mph N/A   Scattered Clouds
6:35 PM 35.6 °F 27.1 °F 26.6 °F 70% 30.22 in 10.0 mi NNW 12.7 mph 20.7 mph N/A   Clear
6:55 PM 33.8 °F 25.3 °F 26.6 °F 75% 30.24 in 10.0 mi NW 11.5 mph - N/A   Clear
7:15 PM 33.8 °F 25.3 °F 26.6 °F 75% 30.24 in 10.0 mi NW 11.5 mph - N/A   Clear
7:35 PM 32.0 °F 22.5 °F 26.6 °F 80% 30.27 in 10.0 mi NW 12.7 mph - N/A   Clear
7:55 PM 32.0 °F 23.0 °F 26.6 °F 80% 30.27 in 10.0 mi NNW 11.5 mph - N/A   Scattered Clouds
8:15 PM 32.0 °F 24.2 °F 26.6 °F 80% 30.27 in 10.0 mi North 9.2 mph - N/A   Mostly Cloudy
8:35 PM 32.0 °F 24.2 °F 24.8 °F 75% 30.26 in 10.0 mi North 9.2 mph - N/A   Scattered Clouds
8:55 PM 32.0 °F 25.6 °F 24.8 °F 75% 30.26 in 10.0 mi NNW 6.9 mph - N/A   Clear
9:15 PM 32.0 °F 25.6 °F 24.8 °F 75% 30.27 in 10.0 mi NW 6.9 mph - N/A   Clear
9:35 PM 32.0 °F 26.4 °F 24.8 °F 75% 30.28 in 10.0 mi NW 5.8 mph - N/A   Clear
9:55 PM 30.2 °F 21.9 °F 26.6 °F 86% 30.28 in 10.0 mi WSW 9.2 mph - N/A   Clear
10:15 PM 30.2 °F 23.4 °F 28.4 °F 93% 30.29 in 10.0 mi NW 6.9 mph - N/A   Clear
10:35 PM 28.4 °F 21.2 °F 26.6 °F 93% 30.29 in 10.0 mi WNW 6.9 mph - N/A   Clear
10:55 PM 28.4 °F 22.2 °F 26.6 °F 93% 30.29 in 10.0 mi NW 5.8 mph - N/A   Scattered Clouds
11:15 PM 28.4 °F 24.6 °F 26.6 °F 93% 30.29 in 10.0 mi NNW 3.5 mph - N/A   Mostly Cloudy
11:35 PM 28.4 °F 22.2 °F 26.6 °F 93% 30.29 in 10.0 mi NW 5.8 mph - N/A   Scattered Clouds
11:55 PM 28.4 °F 22.2 °F 26.6 °F 93% 30.30 in 10.0 mi NNW 5.8 mph - N/A   Clear